Showing default

OSCAR 23 (KITSAT 1), 22077

Orbit data source: Space-Track

OSCAR 23 (KITSAT 1), 22077 is a payload satellite owned by KAIST (KR) in LEO that was launched on Mon, 10 Aug 1992 UTC via an ARIANE 42P launch vehicle from the French Guiana (FRGUI). Payloads include a variety of satellites, spacecraft, and rockets equipped with specific instruments for various scientific and technological missions. These include communications satellites like Starlink; space stations such as the ISS; scientific satellites like the Hubble; Earth observation satellites from companies like Planet Labs, Umbra, and HawkEye 360; GPS; miniature CubeSats for education and research; and military/defense satellites.

Loading next visibility...
OSCAR 23 (KITSAT 1) details
Identifier
22077, 1992-052B
Orbit
LEO
Last TLE update19 hours ago
Origin
Flag of KRKAIST (KR / SKOR)
ManufacturerSSTL
MissionNon-operational Civil Communications
Bus & MotorUOSAT, Unknown motor
Mass48 kg wet, 48 kg dry
Launch date (UTC)
1992-08-10 (32 years ago)
Launch vehicle
ARIANE 42P
Launch site
French Guiana (FRGUI)
Object type
Payload
Rocket body
Debris
Shape & HBRHex Poly, 0.67 m
Radar Cross Section0.353 m², Medium (>0.1 m² and < 1m²)

Expand to show TLE details & history

TLE from 19 hours ago
0 OSCAR 23 (KITSAT 1)
1 22077U 92052B   24360.65390998 -.00000021  00000-0  16465-3 0  9999
2 22077  66.0860 329.3080 0011603 227.1903 306.3286 12.86589594520952
Epoch: 2024-12-25T15:41Z
Definitive object data (Epoch: 2024-12-25T15:41:37.822Z)
Latitude5.96137°
Longitude176.61514°
Altitude1,311.152 km
Speed7.205 km/s
True Right ascension09h 46m 40s
True Declination5° 55' 43"
Sunlit
Object was in full shadow at TLE epoch
Visualization TLE readout
Latitude-51.63186°
Longitude-148.53112°
Altitude1,325.488 km
Speed7.198 km/s
Apparent Right ascension17h 13m 35s
Apparent Declination-75° 38' 17"
Sunlit
Object is in daylight
Visualization observer readout
Local Sidereal Time10:02:29
Azimuth161.215° S
Elevation-42.819°
Doppler factor1
Orbital elements
Apogee altitude1,322.567 km
Perigee altitude1,304.718 km
Semi-major axis7,691.779 km
Eccentricity0.0011603
Inclination66.086°
RAAN329.308°
Arg. of periapsis227.1903°
True anomaly306.22139°
Mean anomaly306.3286°
Eccentric anomaly306.275°
Mean motion3.21738 °/min
BSTAR0.00016465
Orbital period111.89 mins
Loading maneuver chart data...
Loading historical data...
Loading historical data...
Loading historical data...
Loading historical data...
Loading historical data...
Loading historical data...
Loading historical data...

OSCAR 23 (KITSAT 1) Visibility forecast

Observer location: undefined°, undefined

Span
Click to sort rows by Start time (UTC) header in descending order
Start Az.
Max El. time (UTC)
Max El. Az.
Max El.
End time (UTC)
End Az.
13 mins2024-12-26 22:36:16.251Z169.407° S2024-12-26 22:43:16.251Z101.344° ESE30.999°2024-12-26 22:49:16.251Z47.811° ENE
14 mins2024-12-27 00:31:16.251Z235.522° WSW2024-12-27 00:38:16.251Z314.493° NW37.763°2024-12-27 00:45:16.251Z21.125° NNE
7 mins2024-12-27 02:32:16.251Z306.196° NW2024-12-27 02:35:16.251Z329.975° NNW14.846°2024-12-27 02:39:16.251Z1.557° NNE
10 mins2024-12-27 06:30:16.251Z355.747° N2024-12-27 06:35:16.251Z38.233° NE18.902°2024-12-27 06:40:16.251Z78.135° E
14 mins2024-12-27 08:25:16.251Z334.988° NNW2024-12-27 08:32:16.251Z82.593° E43.314°2024-12-27 08:39:16.251Z141.734° SSE
10 mins2024-12-27 10:22:16.251Z294.378° NW2024-12-27 10:26:16.251Z257.707° W22.116°2024-12-27 10:32:16.251Z207.569° SW
|